Mount Pocono, PA

11:41 AM EDT on August 28, 2016 (GMT -0400)
Pocono Mountains Municipal

Weather History for KMPO - November, 2013

Change the Weather History Date:

Wednesday, November 27, 2013

  Actual Average Record
Temperature  
Mean Temperature 34 °F 34 °F  
Max Temperature 44 °F 41 °F 60 °F (1979)
Min Temperature 24 °F 28 °F 6 °F (1949)
Degree Days  
Heating Degree Days 31 31  
Month to date heating degree days 745 696  
Since 1 July heating degree days 1476 1484  
Cooling Degree Days 0 0  
Month to date cooling degree days 0 0  
Year to date cooling degree days 467 314  
Moisture  
Dew Point 31 °F    
Average Humidity 81    
Maximum Humidity 100    
Minimum Humidity 62    
Precipitation  
Precipitation 0.80 in 0.19 in 1.74 in (1979)
Month to date precipitation 2.77 4.03  
Year to date precipitation 41.57 44.33  
Sea Level Pressure  
Sea Level Pressure 29.48 in    
Wind  
Wind Speed 18 mph (NW)    
Max Wind Speed 32 mph    
Max Gust Speed 45 mph    
Visibility 5 miles    
Events Fog , Rain , Snow    
T = Trace of Precipitation, MM = Missing Value Source: NWS Daily Summary

Daily Weather History Graph

Daily Weather History Graph

Search for Another Location

Airport or City:

Trip Planner

Search our weather history database for the weather conditions in past years. The results will help you decide how hot, cold, wet, or windy it might be!

Date:

Astronomy

Nov. 27, 2013 Rise Set
Actual Time 7:03 AM EST 4:34 PM EST
Civil Twilight 6:32 AM EST 5:05 PM EST
Nautical Twilight 5:58 AM EST 5:39 PM EST
Astronomical Twilight 5:25 AM EST 6:12 PM EST
Moon 1:00 AM EST (11/27) 1:13 PM EST (11/27)
Length of Visible Light 10h 32m
Length of Day
9h 31m
Waning Crescent, 32% of the Moon is Illuminated
Nov 27
Waning Crescent
Dec 2
New
Dec 9
First Quarter
Dec 17
Full
Dec 25
Last Quarter

Hourly Weather History & Observations

Time (EST) Temp. Windchill Dew Point Humidity Pressure Visibility Wind Dir Wind Speed Gust Speed Precip Events Conditions
12:05 AM 36.0 °F 28.0 °F 34.0 °F 93% 29.68 in 1.2 mi East 11.5 mph 26.5 mph N/A Rain Rain
12:53 AM 35.1 °F 25.9 °F 34.0 °F 96% 29.67 in 0.8 mi ESE 13.8 mph - N/A Rain Heavy Rain
1:10 AM 35.1 °F 25.5 °F 34.0 °F 96% 29.59 in 1.2 mi East 15.0 mph - N/A Rain Heavy Rain
1:53 AM 37.0 °F 28.9 °F 36.0 °F 96% 29.59 in 1.8 mi East 12.7 mph - N/A Rain Heavy Rain
2:22 AM 39.0 °F 32.8 °F 37.9 °F 96% 29.51 in 2.0 mi ESE 9.2 mph - N/A Rain Rain
2:34 AM 39.9 °F 32.9 °F 39.0 °F 97% 29.49 in 1.8 mi ESE 11.5 mph - N/A Rain Rain
2:40 AM 41.0 °F 34.3 °F 39.9 °F 96% 29.49 in 2.0 mi ESE 11.5 mph - N/A Rain Light Rain
2:53 AM 41.0 °F 34.3 °F 39.9 °F 96% 29.52 in 2.0 mi ESE 11.5 mph - N/A Rain Rain
3:11 AM 42.1 °F 35.7 °F 41.0 °F 96% 29.46 in 1.5 mi East 11.5 mph - N/A Rain Rain
3:37 AM 42.1 °F 37.1 °F 41.0 °F 96% 29.44 in 2.0 mi East 8.1 mph - N/A Rain Rain
3:43 AM 42.1 °F 39.2 °F 42.1 °F 100% 29.44 in 1.8 mi SE 4.6 mph - N/A Rain Rain
3:53 AM 43.0 °F 41.3 °F 42.1 °F 97% 29.48 in 1.5 mi East 3.5 mph - N/A Rain Rain
4:03 AM 43.0 °F 39.5 °F 42.1 °F 97% 29.43 in 2.5 mi ESE 5.8 mph - N/A Rain Light Rain
4:14 AM 42.1 °F 36.1 °F 39.9 °F 92% 29.44 in 1.8 mi West 10.4 mph - N/A Rain Light Rain
4:18 AM 42.1 °F 37.1 °F 39.9 °F 92% 29.44 in 2.5 mi WNW 8.1 mph - N/A Rain Light Rain
4:25 AM 42.1 °F 39.2 °F 41.0 °F 96% 29.43 in 4.0 mi NW 4.6 mph - N/A Rain Light Rain
4:37 AM 42.1 °F 39.2 °F 41.0 °F 96% 29.42 in 4.0 mi NNW 4.6 mph - N/A Rain Light Rain
4:53 AM 42.1 °F 37.7 °F 39.9 °F 92% 29.47 in 7.0 mi WNW 6.9 mph - N/A Rain Light Rain
5:03 AM 42.1 °F 37.1 °F 39.9 °F 92% 29.43 in 6.0 mi WNW 8.1 mph - N/A Rain Light Rain
5:18 AM 42.1 °F 37.1 °F 41.0 °F 96% 29.42 in 2.5 mi WNW 8.1 mph - N/A Rain Light Rain
5:26 AM 42.1 °F 37.7 °F 39.9 °F 92% 29.42 in 4.0 mi WNW 6.9 mph - N/A Rain Light Rain
5:53 AM 39.0 °F 31.4 °F 37.0 °F 93% 29.45 in 10.0 mi NW 12.7 mph 24.2 mph N/A Rain Light Rain
6:06 AM 37.9 °F 31.5 °F 36.0 °F 93% 29.42 in 10.0 mi NW 9.2 mph 19.6 mph N/A Rain Light Rain
6:33 AM 37.0 °F 29.8 °F 36.0 °F 96% 29.44 in 4.0 mi WNW 10.4 mph - N/A Rain Rain
6:53 AM 37.0 °F 29.3 °F 35.1 °F 93% 29.48 in 6.0 mi NW 11.5 mph - N/A Rain Rain
7:31 AM 36.0 °F 28.0 °F 34.0 °F 93% 29.43 in 9.0 mi NNW 11.5 mph 21.9 mph N/A Rain Light Rain
7:51 AM 35.6 °F 27.5 °F 33.8 °F 93% 29.43 in - NW 11.5 mph - N/A Rain Light Rain
7:53 AM 35.1 °F 26.9 °F 33.1 °F 92% 29.48 in - NW 11.5 mph - N/A Rain Light Rain
8:53 AM 34.0 °F 23.4 °F 30.9 °F 89% 29.50 in 10.0 mi NNW 17.3 mph 28.8 mph N/A Rain Light Rain
9:53 AM 32.0 °F 20.1 °F 30.0 °F 92% 29.49 in 10.0 mi NW 19.6 mph 29.9 mph N/A   Overcast
10:38 AM 32.0 °F 19.5 °F 28.9 °F 88% 29.43 in 10.0 mi NNW 21.9 mph 32.2 mph N/A   Overcast
10:53 AM 32.0 °F 19.5 °F 28.9 °F 88% 29.46 in 10.0 mi NW 21.9 mph 29.9 mph N/A   Overcast
11:53 AM 32.0 °F 18.6 °F 28.9 °F 88% 29.44 in 10.0 mi NW 25.3 mph 39.1 mph N/A   Overcast
12:12 PM 32.0 °F 19.8 °F 28.9 °F 88% 29.40 in 10.0 mi NW 20.7 mph 33.4 mph N/A   Overcast
12:53 PM 32.0 °F 19.8 °F 28.9 °F 88% 29.47 in 5.0 mi NW 20.7 mph 34.5 mph N/A Snow Light Snow
1:46 PM 30.9 °F 19.1 °F 28.0 °F 89% 29.41 in 1.8 mi NW 18.4 mph 34.5 mph N/A Snow Light Snow
1:53 PM 30.9 °F 17.8 °F 28.0 °F 89% 29.46 in 1.0 mi NW 23.0 mph 35.7 mph N/A Snow Light Snow
2:05 PM 30.9 °F 18.7 °F 28.0 °F 89% 29.38 in 2.0 mi NW 19.6 mph 32.2 mph N/A Snow Light Snow
2:17 PM 30.9 °F 18.7 °F 28.0 °F 89% 29.39 in 2.0 mi NW 19.6 mph 34.5 mph N/A Snow Light Snow
2:31 PM 30.9 °F 17.8 °F 27.0 °F 85% 29.37 in 1.5 mi NW 23.0 mph 36.8 mph N/A Snow Light Snow
2:53 PM 30.9 °F 17.8 °F 27.0 °F 85% 29.43 in 2.0 mi NW 23.0 mph 32.2 mph N/A Snow Light Snow
3:02 PM 30.9 °F 19.4 °F 27.0 °F 85% 29.41 in 1.8 mi NW 17.3 mph 35.7 mph N/A Snow Light Snow
3:36 PM 30.0 °F 16.9 °F 27.0 °F 88% 29.42 in - NW 21.9 mph 31.1 mph N/A Snow Light Snow
3:53 PM 30.0 °F 16.6 °F 27.0 °F 88% 29.47 in - NW 23.0 mph 31.1 mph N/A Snow Snow
4:04 PM 30.0 °F 16.6 °F 27.0 °F 88% 29.37 in - NW 23.0 mph 32.2 mph N/A Snow Snow
4:06 PM 30.0 °F 17.5 °F 27.0 °F 88% 29.38 in - NW 19.6 mph 32.2 mph N/A Snow Snow
4:18 PM 30.0 °F 17.2 °F 27.0 °F 88% 29.42 in 0.5 mi NW 20.7 mph 39.1 mph N/A Fog , Snow Snow
4:46 PM 30.0 °F 16.6 °F 27.0 °F 88% 29.43 in 1.0 mi NW 23.0 mph 35.7 mph N/A Snow Light Snow
4:53 PM 30.0 °F 17.2 °F 26.1 °F 85% 29.46 in 2.5 mi NW 20.7 mph 35.7 mph N/A Snow Light Snow
5:02 PM 30.0 °F 16.6 °F 26.1 °F 85% 29.43 in 4.0 mi NW 23.0 mph 36.8 mph N/A Snow Light Snow
5:53 PM 30.0 °F 16.6 °F 25.0 °F 82% 29.52 in 5.0 mi NW 23.0 mph 39.1 mph N/A Snow Light Snow
6:38 PM 28.0 °F 12.3 °F 23.0 °F 81% 29.49 in 2.5 mi NW 29.9 mph 41.4 mph N/A Snow Light Snow
6:45 PM 28.0 °F 14.6 °F 23.0 °F 81% 29.50 in - NW 20.7 mph 40.3 mph N/A Snow Light Snow
6:53 PM 28.0 °F 12.5 °F 23.0 °F 81% 29.56 in - NW 28.8 mph 44.9 mph N/A Snow Light Snow
7:27 PM 27.0 °F 12.8 °F 19.9 °F 75% 29.52 in - NW 21.9 mph 41.4 mph N/A Snow Light Snow
7:41 PM 26.1 °F 11.3 °F 19.9 °F 78% 29.52 in 4.0 mi NW 23.0 mph 44.9 mph N/A Snow Light Snow
7:53 PM 27.0 °F 11.6 °F 19.0 °F 72% 29.59 in 9.0 mi NW 26.5 mph 40.3 mph N/A Snow Light Snow
8:53 PM 27.0 °F 14.3 °F 15.1 °F 61% 29.62 in 10.0 mi WNW 17.3 mph 39.1 mph N/A   Overcast
9:53 PM 26.1 °F 11.3 °F 16.0 °F 66% 29.66 in 10.0 mi WNW 23.0 mph 35.7 mph N/A Snow Light Snow
10:53 PM 25.0 °F 12.6 °F 14.0 °F 63% 29.70 in 10.0 mi WNW 15.0 mph 32.2 mph N/A   Mostly Cloudy
11:53 PM 24.1 °F 10.1 °F 12.9 °F 62% 29.76 in 10.0 mi WNW 18.4 mph 28.8 mph N/A   Mostly Cloudy